KF5NXR Weather Reports


Display with metric or nautical units.
time (UTC)temp
F
wind
direction
speed
MPH
gust
MPH
rain 1hr
in
rain 24hr
in
rain mn
in
humidity
%
barometer
mb
20260505113019 70 280 2.0 12.0 0.00 0.00 0.00 88 1007.8
20260505111530 70 279 2.0 15.0 0.00 0.00 0.00 87 1007.7
20260505101520 70 283 4.0 13.0 0.00 0.00 0.00 87 1008.0
20260505100006 70 276 2.0 15.0 0.00 0.00 0.00 87 1008.3
20260505094505 70 278 2.0 17.0 0.00 0.00 0.00 87 1008.3
20260505093005 70 275 1.0 16.0 0.00 0.00 0.00 87 1008.4
20260505091504 70 280 1.0 15.0 0.00 0.00 0.00 87 1008.3
20260505090005 70 270 0.0 13.0 0.00 0.00 0.00 87 1008.4
20260505084503 70 258 6.0 19.0 0.00 0.00 0.00 87 1008.2
20260505083107 70 287 3.0 16.0 0.00 0.00 0.00 87 1008.3
20260505081557 70 288 2.0 13.0 0.00 0.00 0.00 87 1008.3
20260505080055 70 262 2.0 14.0 0.00 0.00 0.00 87 1008.6
20260505074552 70 268 0.0 9.0 0.00 0.00 0.00 86 1009.0
20260505073053 70 262 0.0 15.0 0.00 0.00 0.00 85 1009.1
20260505071548 70 283 2.0 13.0 0.00 0.00 0.00 85 1009.2
20260505070100 70 268 2.0 14.0 0.00 0.00 0.00 84 1009.4
20260505064553 71 270 2.0 12.0 0.00 0.00 0.00 84 1009.2
20260505063043 71 260 5.0 20.0 0.00 0.00 0.00 84 1009.6
20260505061607 71 275 1.0 17.0 0.00 0.00 0.00 83 1009.6
20260505060044 71 277 2.0 16.0 0.00 0.00 0.00 83 1009.8
20260505054544 71 276 3.0 18.0 0.00 0.00 0.00 82 1010.1
20260505053034 71 291 1.0 14.0 0.00 0.00 0.00 81 1010.1
20260505051602 71 266 2.0 11.0 0.00 0.00 0.00 81 1010.2
20260505041524 72 275 2.0 11.0 0.00 0.00 0.00 79 1010.6
20260505040037 72 281 1.0 12.0 0.00 0.00 0.00 79 1010.4
20260505034533 71 266 0.0 6.0 0.00 0.00 0.00 79 1010.3
20260505033017 71 266 0.0 3.0 0.00 0.00 0.00 78 1010.9
20260505031515 72 271 0.0 7.0 0.00 0.00 0.00 78 1010.7
20260505030017 72 281 0.0 3.0 0.00 0.00 0.00 77 1010.8
20260505024512 72 268 0.0 1.0 0.00 0.00 0.00 76 1010.8
20260505023012 72 277 0.0 2.0 0.00 0.00 0.00 76 1010.5
20260505021507 72 274 0.0 2.0 0.00 0.00 0.00 75 1010.5
20260505014500 73 268 0.0 1.0 0.00 0.00 0.00 74 1010.5
20260505011539 74 275 0.0 4.0 0.00 0.00 0.00 72 1010.4
20260505010038 75 278 0.0 13.0 0.00 0.00 0.00 71 1010.4
20260505004533 75 281 1.0 9.0 0.00 0.00 0.00 70 1010.3
20260505003028 76 301 1.0 1.0 0.00 0.00 0.00 1010.5
20260505000055 77 278 1.0 13.0 0.00 0.00 0.00 67 1010.6
20260504234557 77 280 1.0 14.0 0.00 0.00 0.00 66 1010.7
20260504233045 78 285 4.0 15.0 0.00 0.00 0.00 65 1010.6
20260504231543 79 292 1.0 11.0 0.00 0.00 0.00 63 1011.1
20260504230043 79 247 1.0 13.0 0.00 0.00 0.00 63 1011.3
20260504224541 79 202 3.0 14.0 0.00 0.00 0.00 61 1011.1
20260504223041 80 287 1.0 12.0 0.00 0.00 0.00 61 1011.2
20260504221542 79 287 0.0 14.0 0.00 0.00 0.00 61 1011.4
20260504220046 79 268 4.0 17.0 0.00 0.00 0.00 60 1011.5
20260504214537 79 280 5.0 14.0 0.00 0.00 0.00 59 1011.9
20260504213050 80 284 2.0 16.0 0.00 0.00 0.00 60 1012.0
20260504211540 80 270 3.0 12.0 0.00 0.00 0.00 58 1012.3
20260504210033 79 271 2.0 15.0 0.00 0.00 0.00 56 1012.5
20260504204538 80 279 1.0 15.0 0.00 0.00 0.00 56 1012.9
20260504203027 80 278 4.0 19.0 0.00 0.00 0.00 54 1013.2
20260504201526 80 276 5.0 17.0 0.00 0.00 0.00 54 1013.6
20260504200022 80 271 4.0 13.0 0.00 0.00 0.00 54 1013.9
20260504194520 80 275 1.0 16.0 0.00 0.00 0.00 54 1014.0
20260504193020 80 288 0.0 16.0 0.00 0.00 0.00 54 1014.3
20260504191515 80 275 2.0 11.0 0.00 0.00 0.00 56 1014.4
20260504190014 80 284 5.0 15.0 0.00 0.00 0.00 53 1014.8
20260504184510 79 283 2.0 17.0 0.00 0.00 0.00 54 1014.7
20260504183007 79 299 4.0 18.0 0.00 0.00 0.00 53 1015.1
20260504181505 79 262 1.0 13.0 0.00 0.00 0.00 54 1015.4
20260504180004 79 151 1.0 10.0 0.00 0.00 0.00 53 1015.6
20260504174559 78 258 6.0 17.0 0.00 0.00 0.00 53 1016.0
20260504173057 77 268 4.0 15.0 0.00 0.00 0.00 54 1016.3
20260504171555 77 274 6.0 17.0 0.00 0.00 0.00 51 1016.4
20260504120109 57 266 0.0 0.0 0.00 0.00 0.00 86 1017.7